Weather History for Altus AFB, OK

Change the Weather History Date:

Sunday, March 23, 2014

  Actual Average Record
Temperature  
Mean Temperature 40 °F -  
Max Temperature 50 °F 65 °F 85 °F (2009)
Min Temperature 31 °F 41 °F 28 °F (2006)
Degree Days  
Heating Degree Days 24    
Moisture  
Dew Point 18 °F    
Average Humidity 43    
Maximum Humidity 71    
Minimum Humidity 31    
Precipitation  
Precipitation 0.00 in - - ()
Sea Level Pressure  
Sea Level Pressure 30.37 in    
Wind  
Wind Speed 18 mph (NNE)    
Max Wind Speed 31 mph    
Max Gust Speed 40 mph    
Visibility 10 miles    
Events      
Averages and records for this station are not official NWS values.
T = Trace of Precipitation, MM = Missing Value Source: NWS Daily Summary

Daily Weather History Graph

Daily Weather History Graph

Search for Another Location

Airport:

Trip Planner

Search our weather history database for the weather conditions in past years. The results will help you decide how hot, cold, wet, or windy it might be!

Date:

Astronomy

Mar. 23, 2014 Rise Set
Actual Time 7:36 AM CDT 7:51 PM CDT
Civil Twilight 7:11 AM CDT 8:16 PM CDT
Nautical Twilight 6:41 AM CDT 8:45 PM CDT
Astronomical Twilight 6:12 AM CDT 9:15 PM CDT
Moon 1:58 AM CDT (3/23) 12:31 PM CDT (3/23)
Length of Visible Light 13h 05m
Length of Day
12h 14m
Waning Gibbous, 54% of the Moon is Illuminated
Mar 23
Waning Gibbous
Mar 23
Last Quarter
Mar 30
New
Apr 7
First Quarter
Apr 15
Full

Hourly Weather History & Observations

Time (CDT) Temp. Windchill Dew Point Humidity Pressure Visibility Wind Dir Wind Speed Gust Speed Precip Events Conditions
12:58 AM 49.1 °F - 22.8 °F 36% 30.27 in 10.0 mi NNE 25.3 mph 31.1 mph N/A   Overcast
1:53 AM 42.8 °F 32.1 °F 14.0 °F 31% 30.29 in 10.0 mi NNE 31.1 mph 40.3 mph N/A   Scattered Clouds
1:58 AM 42.1 °F 32.3 °F 13.6 °F 32% 30.31 in 10.0 mi NNE 24.2 mph 38.0 mph N/A   Partly Cloudy
2:58 AM 37.4 °F 26.1 °F 11.5 °F 34% 30.34 in 10.0 mi NNE 24.2 mph 34.5 mph N/A   Clear
3:58 AM 35.8 °F 24.8 °F 10.8 °F 36% 30.36 in 10.0 mi NNE 20.7 mph 31.1 mph N/A   Clear
4:58 AM 34.0 °F 23.0 °F 12.0 °F 40% 30.40 in 10.0 mi NNE 18.4 mph 25.3 mph N/A   Clear
5:58 AM 32.7 °F 23.0 °F 13.6 °F 45% 30.42 in 10.0 mi NNE 13.8 mph - N/A   Clear
6:58 AM 31.6 °F 22.1 °F 14.7 °F 50% 30.43 in 10.0 mi NNE 12.7 mph - N/A   Clear
7:58 AM 32.5 °F 21.2 °F 14.4 °F 47% 30.46 in 10.0 mi NNE 18.4 mph - N/A   Overcast
8:58 AM 33.4 °F 23.1 °F 15.3 °F 47% 30.50 in 10.0 mi NNE 16.1 mph - N/A   Mostly Cloudy
9:58 AM 34.3 °F 24.6 °F 16.7 °F 49% 30.52 in 10.0 mi North 15.0 mph - N/A   Partly Cloudy
10:58 AM 36.9 °F 28.7 °F 17.8 °F 46% 30.51 in 10.0 mi North 12.7 mph - N/A   Partly Cloudy
11:58 AM 40.3 °F 31.9 °F 19.4 °F 43% 30.49 in 10.0 mi NNE 16.1 mph - N/A   Partly Cloudy
12:10 PM 41.0 °F 32.8 °F 19.4 °F 42% 30.46 in 10.0 mi NE 16.1 mph 23.0 mph N/A   Clear
12:58 PM 42.8 °F 35.8 °F 17.8 °F 37% 30.45 in 10.0 mi NNE 13.8 mph 24.2 mph N/A   Clear
1:58 PM 45.3 °F 39.0 °F 18.7 °F 35% 30.42 in 10.0 mi NNE 13.8 mph 23.0 mph N/A   Clear
2:58 PM 46.9 °F - 19.0 °F 33% 30.38 in 10.0 mi NNE 12.7 mph - N/A   Clear
3:58 PM 49.5 °F - 21.6 °F 33% 30.34 in 10.0 mi NE 10.4 mph - N/A   Clear
4:58 PM 49.3 °F - 21.6 °F 34% 30.31 in 10.0 mi NNE 10.4 mph - N/A   Clear
5:58 PM 50.2 °F - 21.9 °F 33% 30.29 in 10.0 mi NNE 6.9 mph - N/A   Clear
6:58 PM 48.6 °F - 22.3 °F 36% 30.29 in 10.0 mi ENE 8.1 mph - N/A   Clear
7:58 PM 43.5 °F 40.1 °F 23.4 °F 45% 30.29 in 10.0 mi NE 5.8 mph - N/A   Clear
8:58 PM 37.9 °F 34.4 °F 23.9 °F 57% 30.30 in 10.0 mi NNE 4.6 mph - N/A   Clear
9:58 PM 34.5 °F 30.4 °F 23.2 °F 63% 30.31 in 10.0 mi NNE 4.6 mph - N/A   Clear
10:58 PM 34.2 °F 30.0 °F 23.9 °F 66% 30.30 in 10.0 mi ENE 4.6 mph - N/A   Clear
11:58 PM 31.8 °F 26.2 °F 23.5 °F 71% 30.28 in 10.0 mi ENE 5.8 mph - N/A   Clear